Regional Weather Roundup
Issued by NWS

Home | Current Version | Previous Version | Graphics & Text | Print | Product List | Glossary On
Versions: 1 2 3 4 5 6 7 8 9 10 11 12 13 14 15 16 17 18 19 20 21 22 23 24 25 26 27 28 29 30 31 32 33 34 35 36 37 38 39 40 41 42 43 44 45 46 47 48 49 50
000
ASUS43 KIND 210959
RWRIN

WEATHER ROUNDUP FOR INDIANA
NATIONAL WEATHER SERVICE INDIANAPOLIS IN
500 AM EST WED FEB 21 2018

NOTE: "FAIR" INDICATES FEW OR NO CLOUDS BELOW 12,000 FEET WITH NO
SIGNIFICANT WEATHER AND/OR OBSTRUCTIONS TO VISIBILITY.

* - STATION DOES NOT REPORT WEATHER SUCH AS PRECIPITATION OR FOG.

+ - STATION NOT QUALITY CONTROLLED BY THE NATIONAL WEATHER SERVICE.
    USE DATA WITH CAUTION...ESPECIALLY DEWPOINT AND RELATIVE
    HUMIDITY OBSERVATIONS.

INZ001>003-010>013-019-020-211100-
NORTHWEST INDIANA

CITY           SKY/WX    TMP DP  RH WIND       PRES   REMARKS
MICHIGAN CITY+ LGT RAIN  32  32 100 N12G17    30.29R WCI  23
MONTICELLO +   RAIN      36  34  94 N14       30.24R WCI  27
RENSSELAER +   LGT RAIN  36  32  87 NW9       30.28R WCI  29

$$

LMZ046-743>745-211100-
SOUTHERN LAKE MICHIGAN

STATION/POSITION TIME  TEMP    WIND        PRES    WAVE
                       AIR SEA DIR/SP/G            HT
                 (UTC) (F)     (DEG/KT/KT) (MB)    (FT)
BURNS HARBOR     0940   31     350/ 14/ 17 1025.7R
MICHIGAN CITY    0930   31     340/  1/  2   N/A

$$

INZ004-005-014>016-021>024-211100-
NORTH CENTRAL INDIANA

CITY           SKY/WX    TMP DP  RH WIND       PRES   REMARKS
GOSHEN         RAIN      36  34  92 NW16      30.23R FOG     WCI  26
PERU/GRISSOM   RAIN      37  37 100 N12       30.22R WCI  30
SOUTH BEND     MIX PCPN  32  30  92 N15       30.26R WCI  22
WARSAW +       RAIN      36  36 100 NW16      30.22R WCI  26

$$

INZ006>009-017-018-025>027-211100-
NORTHEAST INDIANA

CITY           SKY/WX    TMP DP  RH WIND       PRES   REMARKS
AUBURN +       RAIN      41  39  93 NW9       30.18R
FORT WAYNE     LGT RAIN  43  41  93 NW8       30.17R
KENDALLVILLE + RAIN      38  37  98 NW14      30.20R WCI  30

$$

INZ028-029-035-036-043>045-051>053-211100-
WEST CENTRAL INDIANA

CITY           SKY/WX    TMP DP  RH WIND       PRES   REMARKS
CRAWFORDSVL +  FLURRIES  36  36 100 N12       30.16S WCI  27
GREENCASTLE +  LGT RAIN  37  36  93 N10       30.20F WCI  30
LAFAYETTE      RAIN      36  35  96 NW9       30.25R FOG     WCI  29
TERRE HAUTE    LGT RAIN  38  36  92 N8        30.21S WCI  32

$$

INZ030>032-037>040-046>048-054>057-064-065-211100-
CENTRAL INDIANA

CITY           SKY/WX    TMP DP  RH WIND       PRES   REMARKS
GREENWOOD *+   CLOUDY    44 -45   2 NW12      30.18R
INDIANAPOLIS   LGT RAIN  43  42  97 NW15      30.20R
-EAGLE CREEK   RAIN      44  41  89 NW15      30.20R
KOKOMO +       LGT RAIN  40  39  97 NW16      30.22R WCI  31
MT COMFORT *+  CLOUDY    45  45 100 NW13G20   30.19S
SHELBYVILLE    CLOUDY    51  48  89 NW15      30.16R

$$

INZ033-034-041-042-049-050-058-059-211100-
EAST CENTRAL INDIANA

CITY           SKY/WX    TMP DP  RH WIND       PRES   REMARKS
MUNCIE         LGT RAIN  48  45  89 NW15G21   30.18R
RICHMOND +     HVY RAIN  54  54 100 N16G25    30.16R

$$

INZ060-061-067>069-081>083-085>088-211100-
SOUTHWEST INDIANA

CITY           SKY/WX    TMP DP  RH WIND       PRES   REMARKS
EVANSVILLE     LGT RAIN  46  45  96 W10G20    30.26R
HUNTINGBURG +  LGT RAIN  49  47  93 NW9       30.18S

$$

INZ062-063-066-070>080-084-089>092-211100-
SOUTH CENTRAL AND SOUTHEAST INDIANA

CITY           SKY/WX    TMP DP  RH WIND       PRES   REMARKS
BLOOMINGTON    LGT RAIN  48  46  93 N13       30.16S
FRENCH LICK *+ CLOUDY    50 N/A N/A NW3       30.16F
MADISON *+     CLOUDY    57  54  88 NW12G17   30.19R

$$





USA.gov is the U.S. government's official web portal to all federal, state and local government web resources and services.